Showing default

ASTRO H, 41337

Orbit data source: Space-Track

ASTRO H, 41337 is a Japanese payload satellite in LEO that was launched on Wed, 17 Feb 2016 UTC via an H-IIA 202 launch vehicle from the Tanegashima Space Center (TNSTA). Payload-class satellites include a variety of spacecraft equipped with specific instruments for various scientific and technological missions. These include communications satellites like Starlink; space stations such as the ISS; scientific satellites like the Hubble; Earth observation satellites from companies like Planet Labs, Umbra, and HawkEye 360; GPS; miniature CubeSats for education and research; and military/defense satellites.

Loading next visibility...
Identifier
41337, 2016-012A
Orbit
LEO
Country
Flag of JPJP / JPN
Related business
Manufacturer
TSUK/NECTF
Mission
Non-operational Civil Astronomy
Bus & Motor
ASTRO-H, Unknown motor
Mass
2,700 kg wet, 2,700 kg dry
Launch date (UTC)
2016-02-17 (10 years ago)
Launch vehicle
H-IIA 202
Launch site
Tanegashima Space Center (TNSTA)
Object type
Payload
Rocket body
Debris
Shape & HBR
Oct Cyl + 2 Pan + 1 Truss, 7.0 m
Radar Cross Section
16.262 m², Large (>1 m²)

Expand to show TLE details & history
Last TLE update: 9 hours ago

TLE from 9 hours ago
0 ASTRO H
1 41337U 16012A   26165.98575747  .00002314  00000-0  13128-3 0  9998
2 41337  30.9993  88.4041 0009764 231.8970 128.0788 15.10502589566955
Epoch: 2026-06-14T23:39Z
TLE epoch observation values (Epoch: 2026-06-14T23:39:29.445Z)
Latitude
-0.00001°
Longitude
-169.74724°
Altitude
537.341 km
Speed
7.594 km/s
True Right ascension
05h 53m 36s
True Declination
0° 00' 00"
Sunlit
Object was in daylight at epoch
Visualization orbit readout
Latitude
Unknown
Longitude
Unknown
Altitude
Unknown
Speed
Unknown
Apparent Right ascension
Unknown
Apparent Declination
Unknown
Sunlit
N/A
Visualization observer readout
Local Sidereal Time
19:26:46
Azimuth
Unknown
Elevation
Unknown
Doppler factor
Unknown
Orbital elements
Apogee altitude
545.262 km
Perigee altitude
531.755 km
Semi-major axis
6,916.645 km
Eccentricity
0.00098
Inclination
30.9993°
RAAN
88.4041°
Arg. of periapsis
231.897°
True anomaly
128.16681°
Mean anomaly
128.0788°
Eccentric anomaly
128.12281°
Mean motion
3.77311 °/min
Orbital period
95.41 mins
BSTAR
0.00013128
Loading maneuver chart data...
Computing Atmospheric mass density...
Loading historical data...
Loading historical data...
Loading historical data...
Loading historical data...
Loading historical data...
Loading historical data...
Loading historical data...

Documentation

Showing up to 5 results
|